Friday Harbor, WA
on Sunday, December 23, 2012

Sunday
Previous Day Next Day
Daily Summary
 ActualAverageRecord
Temperature
Mean Temperature °F °F  
Max Temperature 45°F 43°F 52°F (2003)
Min Temperature 41°F 34°F 16°F (2008)
Degree Days
Heating Degree Days 22    
Moisture
Dew Point 37°F   
Average Humidity 78    
Maximum Humidity 89    
Minimum Humidity 71    
Precipitation
Precipitation 0.00 in in in ()
Wind
Wind Speed 15 mph   
Max Wind Speed 23 mph   
Max Gust Speed 33 mph   
Visibility 10 miles   
Events Rain   
Averages and records for this station are not official NWS values.
Key: T is trace of precipitation, MM is missing value
Source: NWS Daily Summary
Seasonal Weather Averages
Time(PST)TemperatureDew PointHumidity Pressure Visibility Wind DirectionWind SpeedGust SpeedPrecipitationEvents Conditions
12:53 AM 43.0°F 37.0°F 80% 29.69 in 10.0 miles SSE 23.0 mph 31.1 mph N/A   Overcast
1:53 AM 44.1°F 37.0°F 76% 29.70 in 10.0 miles SE 21.9 mph 31.1 mph N/A   Overcast
2:53 AM 44.1°F 37.9°F 79% 29.71 in 10.0 miles SE 17.3 mph 26.5 mph N/A   Overcast
3:53 AM 44.1°F 37.0°F 76% 29.70 in 10.0 miles SE 19.6 mph 29.9 mph N/A   Overcast
4:53 AM 44.1°F 37.0°F 76% 29.69 in 10.0 miles SE 21.9 mph 33.4 mph N/A   Mostly Cloudy
5:53 AM 44.1°F 37.9°F 79% 29.70 in 10.0 miles SE 17.3 mph 33.4 mph N/A   Overcast
6:53 AM 44.1°F 37.0°F 76% 29.70 in 10.0 miles SE 20.7 mph 29.9 mph N/A   Overcast
7:53 AM 44.1°F 37.0°F 76% 29.69 in 10.0 miles SE 19.6 mph 33.4 mph N/A   Overcast
9:53 AM 44.1°F 37.0°F 76% 29.70 in 10.0 miles ESE 13.8 mph 24.2 mph N/A   Overcast
10:49 AM 44.6°F 37.4°F 76% 29.68 in 10.0 miles SE 17.3 mph 25.3 mph N/A   Mostly Cloudy
10:53 AM 44.1°F 37.0°F 76% 29.68 in 10.0 miles SE 19.6 mph 28.8 mph N/A   Mostly Cloudy
11:53 AM 45.0°F 36.0°F 71% 29.65 in 10.0 miles East 11.5 mph - N/A   Overcast
12:53 PM 45.0°F 36.0°F 71% 29.65 in 10.0 miles ESE 10.4 mph - N/A   Overcast
1:53 PM 45.0°F 36.0°F 71% 29.63 in 10.0 miles ENE 5.8 mph - N/A   Overcast
2:53 PM 44.1°F 36.0°F 73% 29.65 in 10.0 miles NNE 4.6 mph - N/A   Overcast
3:53 PM 44.1°F 36.0°F 73% 29.65 in 10.0 miles Calm Calm - N/A   Overcast
4:53 PM 44.1°F 35.1°F 71% 29.66 in 10.0 miles East 11.5 mph - N/A   Overcast
5:53 PM 43.0°F 36.0°F 76% 29.68 in 10.0 miles East 6.9 mph - 0.00 in Rain Light Rain
6:00 PM 42.8°F 35.6°F 76% 29.68 in 10.0 miles ESE 5.8 mph - 0.00 in Rain Light Rain
6:11 PM 42.8°F 35.6°F 76% 29.68 in 10.0 miles ESE 6.9 mph - 0.00 in Rain Light Rain
6:33 PM 42.8°F 37.4°F 81% 29.69 in 10.0 miles ESE 6.9 mph - 0.00 in   Overcast
6:53 PM 42.1°F 37.0°F 82% 29.70 in 10.0 miles ENE 3.5 mph - 0.00 in   Overcast
7:53 PM 41.0°F 37.0°F 86% 29.72 in 10.0 miles NE 3.5 mph - 0.00 in   Overcast
8:03 PM 41.0°F 37.4°F 87% 29.72 in 10.0 miles NE 3.5 mph - N/A   Overcast
8:53 PM 41.0°F 37.9°F 89% 29.74 in 10.0 miles NNE 3.5 mph - N/A   Overcast
9:53 PM 41.0°F 37.0°F 86% 29.76 in 10.0 miles Calm Calm - N/A   Overcast
10:53 PM 41.0°F 37.0°F 86% 29.79 in 10.0 miles Calm Calm - N/A   Overcast
11:53 PM 41.0°F 37.0°F 86% 29.82 in 10.0 miles Calm Calm - N/A   Overcast
Moon Phase
Dec. 23 Dec. 28 Jan. 04 Jan. 11 Jan. 18
Sunrise:08:02 AM (PST) Moon Rise:01:23 PM (PST)12/23
Sunset:04:20 PM (PST) Moon Set:03:39 AM (PST)12/23

Copyright © 2014 The Weather Underground, Inc.